Time,TemperatureF,DewpointF,PressureIn,WindDirection,WindDirectionDegrees,WindSpeedMPH,WindSpeedGustMPH,Humidity,HourlyPrecipIn,Conditions,Clouds,dailyrainin,SolarRadiationWatts/m^2,SoftwareType,DateUTC
2013-05-02 00:01:00,68.2,61.5,30.01,SE,130,2.0,3.0,79,0.00,,,0.00,0.00,VWS V14.01,2013-05-02 05:01:00,
2013-05-02 00:06:00,68.1,61.3,30.01,ESE,123,2.0,5.0,79,0.00,,,0.00,0.00,VWS V14.01,2013-05-02 05:06:00,
2013-05-02 00:11:00,68.0,61.2,30.01,ESE,122,4.0,4.0,79,0.00,,,0.00,0.00,VWS V14.01,2013-05-02 05:11:00,
2013-05-02 00:16:00,68.0,61.2,30.01,ESE,123,1.0,4.0,79,0.00,,,0.00,0.00,VWS V14.01,2013-05-02 05:16:00,
2013-05-02 00:21:00,67.9,61.2,30.01,ESE,123,0.0,1.0,79,0.00,,,0.00,0.00,VWS V14.01,2013-05-02 05:21:00,
2013-05-02 00:26:00,67.8,61.1,30.01,ESE,122,1.0,3.0,79,0.00,,,0.00,0.00,VWS V14.01,2013-05-02 05:26:00,
2013-05-02 00:31:00,67.7,61.3,30.01,ESE,122,0.0,3.0,80,0.00,,,0.00,0.00,VWS V14.01,2013-05-02 05:31:00,
2013-05-02 00:36:00,67.6,61.2,30.01,ESE,123,1.0,3.0,80,0.00,,,0.00,0.00,VWS V14.01,2013-05-02 05:36:00,
2013-05-02 00:41:00,67.5,61.5,30.01,ESE,123,1.0,2.0,81,0.00,,,0.00,0.00,VWS V14.01,2013-05-02 05:41:00,
2013-05-02 00:46:00,67.3,61.3,30.01,ESE,122,1.0,3.0,81,0.00,,,0.00,0.00,VWS V14.01,2013-05-02 05:46:00,
2013-05-02 00:51:00,67.2,61.2,30.01,ESE,122,0.0,1.0,81,0.00,,,0.00,0.00,VWS V14.01,2013-05-02 05:51:00,
2013-05-02 00:56:00,67.1,61.1,30.01,ESE,122,0.0,1.0,81,0.00,,,0.00,0.00,VWS V14.01,2013-05-02 05:56:00,
2013-05-02 01:01:00,67.0,61.3,30.01,ESE,122,0.0,0.0,82,0.00,,,0.00,0.00,VWS V14.01,2013-05-02 06:01:00,
2013-05-02 01:06:00,66.9,61.2,30.01,ESE,122,1.0,1.0,82,0.00,,,0.00,0.00,VWS V14.01,2013-05-02 06:06:00,
2013-05-02 01:11:00,66.9,61.2,30.01,ESE,122,0.0,1.0,82,0.00,,,0.00,0.00,VWS V14.01,2013-05-02 06:11:00,
2013-05-02 01:16:00,67.0,61.0,30.01,ESE,122,1.0,2.0,81,0.00,,,0.00,0.00,VWS V14.01,2013-05-02 06:16:00,
2013-05-02 01:21:00,67.0,61.0,30.01,ESE,122,0.0,1.0,81,0.00,,,0.00,0.00,VWS V14.01,2013-05-02 06:21:00,
2013-05-02 01:26:00,67.1,61.1,30.02,ESE,122,1.0,2.0,81,0.00,,,0.00,0.00,VWS V14.01,2013-05-02 06:26:00,
2013-05-02 01:31:00,67.1,60.7,30.02,ESE,123,0.0,3.0,80,0.00,,,0.00,0.00,VWS V14.01,2013-05-02 06:31:00,
2013-05-02 01:36:00,67.1,60.7,30.01,ESE,118,2.0,4.0,80,0.00,,,0.00,0.00,VWS V14.01,2013-05-02 06:36:00,
2013-05-02 01:41:00,67.1,60.7,30.01,SE,134,1.0,3.0,80,0.00,,,0.00,0.00,VWS V14.01,2013-05-02 06:41:00,
2013-05-02 01:46:00,67.0,60.6,30.01,SE,129,1.0,5.0,80,0.00,,,0.00,0.00,VWS V14.01,2013-05-02 06:46:00,
2013-05-02 01:51:00,66.9,60.5,30.01,SE,127,4.0,4.0,80,0.00,,,0.00,0.00,VWS V14.01,2013-05-02 06:51:00,
2013-05-02 01:56:00,66.8,60.4,30.01,SE,126,2.0,4.0,80,0.00,,,0.00,0.00,VWS V14.01,2013-05-02 06:56:00,
2013-05-02 02:01:00,66.7,60.3,30.01,SE,126,0.0,2.0,80,0.00,,,0.00,0.00,VWS V14.01,2013-05-02 07:01:00,
2013-05-02 02:06:00,66.7,60.3,30.01,SE,126,1.0,3.0,80,0.00,,,0.00,0.00,VWS V14.01,2013-05-02 07:06:00,
2013-05-02 02:11:00,66.6,60.2,30.01,SE,126,0.0,1.0,80,0.00,,,0.00,0.00,VWS V14.01,2013-05-02 07:11:00,
2013-05-02 02:16:00,66.6,60.6,30.00,SE,126,0.0,2.0,81,0.00,,,0.00,0.00,VWS V14.01,2013-05-02 07:16:00,
2013-05-02 02:21:00,66.5,60.5,30.00,SE,126,1.0,1.0,81,0.00,,,0.00,0.00,VWS V14.01,2013-05-02 07:21:00,
2013-05-02 02:26:00,66.3,60.3,30.00,SE,126,0.0,2.0,81,0.00,,,0.00,0.00,VWS V14.01,2013-05-02 07:26:00,
2013-05-02 02:31:00,66.2,60.2,30.00,SE,126,2.0,2.0,81,0.00,,,0.00,0.00,VWS V14.01,2013-05-02 07:31:00,
2013-05-02 02:36:00,66.1,60.1,30.00,SE,126,0.0,2.0,81,0.00,,,0.00,0.00,VWS V14.01,2013-05-02 07:36:00,
2013-05-02 02:41:00,65.9,60.3,30.00,SE,126,0.0,0.0,82,0.00,,,0.00,0.00,VWS V14.01,2013-05-02 07:41:00,
2013-05-02 02:46:00,65.8,60.2,30.00,SE,126,1.0,3.0,82,0.00,,,0.00,0.00,VWS V14.01,2013-05-02 07:46:00,
2013-05-02 02:51:00,65.7,60.1,30.00,SE,126,1.0,3.0,82,0.00,,,0.00,0.00,VWS V14.01,2013-05-02 07:51:00,
2013-05-02 02:56:00,65.6,60.0,29.99,SE,126,1.0,3.0,82,0.00,,,0.00,0.00,VWS V14.01,2013-05-02 07:56:00,
2013-05-02 03:01:00,65.5,59.9,29.99,SE,126,2.0,3.0,82,0.00,,,0.00,0.00,VWS V14.01,2013-05-02 08:01:00,
2013-05-02 03:06:00,65.5,59.9,29.99,SE,125,0.0,3.0,82,0.00,,,0.00,0.00,VWS V14.01,2013-05-02 08:06:00,
2013-05-02 03:11:00,65.4,59.8,29.99,SE,126,0.0,1.0,82,0.00,,,0.00,0.00,VWS V14.01,2013-05-02 08:11:00,
2013-05-02 03:16:00,65.3,59.7,29.99,SE,126,1.0,2.0,82,0.00,,,0.00,0.00,VWS V14.01,2013-05-02 08:16:00,
2013-05-02 03:21:00,65.2,59.6,29.99,ESE,105,2.0,4.0,82,0.00,,,0.00,0.00,VWS V14.01,2013-05-02 08:21:00,
2013-05-02 03:25:00,65.1,59.5,29.99,ESE,109,1.0,5.0,82,0.00,,,0.00,0.00,VWS V14.01,2013-05-02 08:25:00,
2013-05-02 03:30:00,65.1,59.5,29.99,ESE,119,4.0,7.0,82,0.00,,,0.00,0.00,VWS V14.01,2013-05-02 08:30:00,
2013-05-02 03:35:00,65.1,59.5,29.99,ESE,113,4.0,7.0,82,0.00,,,0.00,0.00,VWS V14.01,2013-05-02 08:35:00,
2013-05-02 03:40:00,65.1,59.5,29.99,ESE,109,3.0,3.0,82,0.00,,,0.00,0.00,VWS V14.01,2013-05-02 08:40:00,
2013-05-02 03:45:00,65.1,59.5,29.99,ESE,111,3.0,7.0,82,0.00,,,0.00,0.00,VWS V14.01,2013-05-02 08:45:00,
2013-05-02 03:50:00,65.0,59.4,29.99,ESE,106,7.0,7.0,82,0.00,,,0.00,0.00,VWS V14.01,2013-05-02 08:50:00,
2013-05-02 03:55:00,64.9,59.6,29.99,ESE,108,3.0,9.0,83,0.00,,,0.00,0.00,VWS V14.01,2013-05-02 08:55:00,
2013-05-02 04:00:00,64.9,59.3,29.99,ESE,110,1.0,4.0,82,0.00,,,0.00,0.00,VWS V14.01,2013-05-02 09:00:00,
2013-05-02 04:05:00,64.9,59.3,29.99,ESE,115,2.0,4.0,82,0.00,,,0.00,0.00,VWS V14.01,2013-05-02 09:05:00,
2013-05-02 04:10:00,64.9,59.3,29.99,ESE,106,3.0,4.0,82,0.00,,,0.00,0.00,VWS V14.01,2013-05-02 09:10:00,
2013-05-02 04:15:00,64.8,59.2,30.00,ESE,106,2.0,4.0,82,0.00,,,0.00,0.00,VWS V14.01,2013-05-02 09:15:00,
2013-05-02 04:20:00,64.8,59.5,30.00,ESE,106,0.0,2.0,83,0.00,,,0.00,0.00,VWS V14.01,2013-05-02 09:20:00,
2013-05-02 04:25:00,64.7,59.4,30.00,ESE,106,1.0,3.0,83,0.00,,,0.00,0.00,VWS V14.01,2013-05-02 09:25:00,
2013-05-02 04:30:00,64.7,59.4,30.00,ESE,106,0.0,0.0,83,0.00,,,0.00,0.00,VWS V14.01,2013-05-02 09:30:00,
2013-05-02 04:35:00,64.7,59.1,30.00,ESE,106,1.0,4.0,82,0.00,,,0.00,0.00,VWS V14.01,2013-05-02 09:35:00,
2013-05-02 04:40:00,64.7,59.1,30.00,ESE,106,2.0,2.0,82,0.00,,,0.00,0.00,VWS V14.01,2013-05-02 09:40:00,
2013-05-02 04:45:00,64.7,59.1,30.00,ESE,106,2.0,3.0,82,0.00,,,0.00,0.00,VWS V14.01,2013-05-02 09:45:00,
2013-05-02 04:50:00,64.7,59.1,30.00,ESE,106,0.0,2.0,82,0.00,,,0.00,0.00,VWS V14.01,2013-05-02 09:50:00,
2013-05-02 04:55:00,64.6,59.0,30.00,ESE,106,1.0,4.0,82,0.00,,,0.00,0.00,VWS V14.01,2013-05-02 09:55:00,
2013-05-02 05:00:00,64.6,59.0,30.00,ESE,111,1.0,3.0,82,0.00,,,0.00,0.00,VWS V14.01,2013-05-02 10:00:00,
2013-05-02 05:05:00,64.5,58.9,30.00,ESE,111,1.0,3.0,82,0.00,,,0.00,0.00,VWS V14.01,2013-05-02 10:05:00,
2013-05-02 05:10:00,64.5,58.9,30.00,ESE,111,2.0,3.0,82,0.00,,,0.00,0.00,VWS V14.01,2013-05-02 10:10:00,
2013-05-02 05:15:00,64.4,58.8,30.01,ESE,111,2.0,4.0,82,0.00,,,0.00,0.00,VWS V14.01,2013-05-02 10:15:00,
2013-05-02 05:20:00,64.5,58.9,30.01,ESE,110,0.0,2.0,82,0.00,,,0.00,0.00,VWS V14.01,2013-05-02 10:20:00,
2013-05-02 05:25:00,64.4,58.8,30.01,ESE,111,0.0,3.0,82,0.00,,,0.00,0.00,VWS V14.01,2013-05-02 10:25:00,
2013-05-02 05:30:00,64.4,59.1,30.01,ESE,111,1.0,2.0,83,0.00,,,0.00,0.00,VWS V14.01,2013-05-02 10:30:00,
2013-05-02 05:35:00,64.3,59.0,30.02,ESE,111,0.0,3.0,83,0.00,,,0.00,0.00,VWS V14.01,2013-05-02 10:35:00,
2013-05-02 05:40:00,64.3,59.0,30.02,ESE,110,0.0,0.0,83,0.00,,,0.00,0.00,VWS V14.01,2013-05-02 10:40:00,
2013-05-02 05:45:00,64.3,59.0,30.02,ESE,110,0.0,1.0,83,0.00,,,0.00,0.00,VWS V14.01,2013-05-02 10:45:00,
2013-05-02 05:50:00,64.3,59.0,30.03,ESE,111,0.0,0.0,83,0.00,,,0.00,0.00,VWS V14.01,2013-05-02 10:50:00,
2013-05-02 05:55:00,64.2,58.9,30.03,ESE,111,0.0,1.0,83,0.00,,,0.00,0.00,VWS V14.01,2013-05-02 10:55:00,
2013-05-02 06:00:00,64.1,58.8,30.03,ESE,111,0.0,0.0,83,0.00,,,0.00,0.00,VWS V14.01,2013-05-02 11:00:00,
2013-05-02 06:05:00,64.1,58.8,30.03,ESE,110,0.0,2.0,83,0.00,,,0.00,0.00,VWS V14.01,2013-05-02 11:05:00,
2013-05-02 06:10:00,64.0,58.7,30.03,ESE,111,0.0,0.0,83,0.00,,,0.00,0.00,VWS V14.01,2013-05-02 11:10:00,
2013-05-02 06:15:00,64.0,58.7,30.03,ESE,111,0.0,1.0,83,0.00,,,0.00,0.00,VWS V14.01,2013-05-02 11:15:00,
2013-05-02 06:20:00,63.9,58.6,30.04,ESE,111,0.0,0.0,83,0.00,,,0.00,5.00,VWS V14.01,2013-05-02 11:20:00,
2013-05-02 06:25:00,63.8,58.9,30.04,ESE,110,0.0,1.0,84,0.00,,,0.00,5.00,VWS V14.01,2013-05-02 11:25:00,
2013-05-02 06:30:00,63.8,58.9,30.04,ESE,110,0.0,0.0,84,0.00,,,0.00,7.00,VWS V14.01,2013-05-02 11:30:00,
2013-05-02 06:35:00,63.8,58.9,30.04,ESE,110,1.0,3.0,84,0.00,,,0.00,7.00,VWS V14.01,2013-05-02 11:35:00,
2013-05-02 06:40:00,63.8,58.9,30.04,ESE,111,1.0,2.0,84,0.00,,,0.00,9.00,VWS V14.01,2013-05-02 11:40:00,
2013-05-02 06:45:00,63.8,58.5,30.04,ESE,111,2.0,4.0,83,0.00,,,0.00,12.00,VWS V14.01,2013-05-02 11:45:00,
2013-05-02 06:50:00,63.8,58.5,30.05,ESE,109,2.0,2.0,83,0.00,,,0.00,16.00,VWS V14.01,2013-05-02 11:50:00,
2013-05-02 06:55:00,63.8,58.5,30.05,ESE,110,0.0,3.0,83,0.00,,,0.00,19.00,VWS V14.01,2013-05-02 11:55:00,
2013-05-02 07:00:00,63.8,58.5,30.05,ESE,110,0.0,1.0,83,0.00,,,0.00,21.00,VWS V14.01,2013-05-02 12:00:00,
2013-05-02 07:05:00,63.8,58.5,30.05,ESE,110,2.0,4.0,83,0.00,,,0.00,23.00,VWS V14.01,2013-05-02 12:05:00,
2013-05-02 07:10:00,63.8,58.5,30.05,ESE,110,0.0,1.0,83,0.00,,,0.00,28.00,VWS V14.01,2013-05-02 12:10:00,
2013-05-02 07:15:00,63.8,58.5,30.05,ESE,102,2.0,6.0,83,0.00,,,0.00,32.00,VWS V14.01,2013-05-02 12:15:00,
2013-05-02 07:20:00,63.7,58.1,30.05,East,92,1.0,3.0,82,0.00,,,0.00,32.00,VWS V14.01,2013-05-02 12:20:00,
2013-05-02 07:25:00,63.7,58.1,30.06,East,100,3.0,6.0,82,0.00,,,0.00,30.00,VWS V14.01,2013-05-02 12:25:00,
2013-05-02 07:30:00,63.7,58.1,30.06,East,99,2.0,2.0,82,0.00,,,0.00,28.00,VWS V14.01,2013-05-02 12:30:00,
2013-05-02 07:35:00,63.6,58.0,30.06,East,96,6.0,6.0,82,0.00,,,0.00,28.00,VWS V14.01,2013-05-02 12:35:00,
2013-05-02 07:40:00,63.6,58.0,30.06,East,97,2.0,2.0,82,0.00,,,0.00,30.00,VWS V14.01,2013-05-02 12:40:00,
2013-05-02 07:45:00,63.5,58.2,30.06,East,98,2.0,6.0,83,0.00,,,0.00,28.00,VWS V14.01,2013-05-02 12:45:00,
2013-05-02 07:50:00,63.5,57.9,30.07,East,100,1.0,3.0,82,0.00,,,0.00,25.00,VWS V14.01,2013-05-02 12:50:00,
2013-05-02 07:55:00,63.5,57.9,30.07,East,101,2.0,6.0,82,0.00,,,0.00,26.00,VWS V14.01,2013-05-02 12:55:00,
2013-05-02 08:00:00,63.5,57.9,30.07,ESE,105,2.0,2.0,82,0.00,,,0.00,32.00,VWS V14.01,2013-05-02 13:00:00,
2013-05-02 08:05:00,63.5,57.9,30.07,East,101,1.0,6.0,82,0.00,,,0.00,39.00,VWS V14.01,2013-05-02 13:05:00,
2013-05-02 08:10:00,63.6,58.0,30.07,East,101,2.0,2.0,82,0.00,,,0.00,47.00,VWS V14.01,2013-05-02 13:10:00,
2013-05-02 08:15:00,63.6,58.0,30.07,ESE,108,1.0,4.0,82,0.00,,,0.00,51.00,VWS V14.01,2013-05-02 13:15:00,
2013-05-02 08:20:00,63.7,58.1,30.07,ESE,117,2.0,2.0,82,0.00,,,0.00,67.00,VWS V14.01,2013-05-02 13:20:00,
2013-05-02 08:25:00,63.6,58.0,30.07,ESE,115,4.0,8.0,82,0.00,,,0.00,69.00,VWS V14.01,2013-05-02 13:25:00,
2013-05-02 08:30:00,63.6,58.3,30.07,ESE,109,4.0,4.0,83,0.00,,,0.00,69.00,VWS V14.01,2013-05-02 13:30:00,
2013-05-02 08:35:00,63.5,57.9,30.07,East,96,2.0,8.0,82,0.00,,,0.00,74.00,VWS V14.01,2013-05-02 13:35:00,
2013-05-02 08:40:00,63.4,58.2,30.07,ESE,113,2.0,3.0,83,0.00,,,0.00,67.00,VWS V14.01,2013-05-02 13:40:00,
2013-05-02 08:45:00,63.2,58.0,30.08,ESE,106,2.0,9.0,83,0.00,,,0.00,51.00,VWS V14.01,2013-05-02 13:45:00,
2013-05-02 08:50:00,63.0,58.1,30.08,ESE,107,2.0,5.0,84,0.00,,,0.00,47.00,VWS V14.01,2013-05-02 13:50:00,
2013-05-02 08:55:00,62.8,57.9,30.08,ESE,113,7.0,8.0,84,0.00,,,0.00,46.00,VWS V14.01,2013-05-02 13:55:00,
2013-05-02 09:00:00,62.6,58.0,30.08,ESE,119,3.0,4.0,85,0.00,,,0.00,47.00,VWS V14.01,2013-05-02 14:00:00,
2013-05-02 09:05:00,62.5,57.9,30.08,ESE,109,4.0,6.0,85,0.00,,,0.00,60.00,VWS V14.01,2013-05-02 14:05:00,
2013-05-02 09:10:00,62.5,58.3,30.08,ESE,121,7.0,8.0,86,0.00,,,0.00,76.00,VWS V14.01,2013-05-02 14:10:00,
2013-05-02 09:15:00,62.5,58.3,30.08,ESE,119,4.0,8.0,86,0.00,,,0.00,67.00,VWS V14.01,2013-05-02 14:15:00,
2013-05-02 09:20:00,62.5,58.3,30.08,ESE,121,5.0,7.0,86,0.00,,,0.00,79.00,VWS V14.01,2013-05-02 14:20:00,
2013-05-02 09:25:00,62.5,58.3,30.08,ESE,117,8.0,8.0,86,0.01,,,0.01,102.00,VWS V14.01,2013-05-02 14:25:00,
2013-05-02 09:30:00,62.3,58.4,30.08,ESE,114,4.0,5.0,87,0.02,,,0.02,130.00,VWS V14.01,2013-05-02 14:30:00,
2013-05-02 09:35:00,62.2,58.6,30.08,ESE,119,0.0,5.0,88,0.03,,,0.03,158.00,VWS V14.01,2013-05-02 14:35:00,
2013-05-02 09:40:00,62.3,58.7,30.08,ESE,122,0.0,1.0,88,0.03,,,0.03,190.00,VWS V14.01,2013-05-02 14:40:00,
2013-05-02 09:45:00,62.4,59.1,30.08,ESE,122,1.0,2.0,89,0.03,,,0.03,186.00,VWS V14.01,2013-05-02 14:45:00,
2013-05-02 09:50:00,62.4,59.1,30.08,ESE,122,0.0,0.0,89,0.03,,,0.03,162.00,VWS V14.01,2013-05-02 14:50:00,
2013-05-02 09:55:00,62.5,59.2,30.08,SE,124,1.0,3.0,89,0.03,,,0.03,134.00,VWS V14.01,2013-05-02 14:55:00,
2013-05-02 10:00:00,62.4,59.1,30.08,ESE,119,0.0,2.0,89,0.04,,,0.04,98.00,VWS V14.01,2013-05-02 15:00:00,
2013-05-02 10:05:00,62.2,58.9,30.08,SE,128,0.0,5.0,89,0.04,,,0.04,76.00,VWS V14.01,2013-05-02 15:05:00,
2013-05-02 10:10:00,62.2,58.9,30.08,SE,128,0.0,0.0,89,0.05,,,0.05,67.00,VWS V14.01,2013-05-02 15:10:00,
2013-05-02 10:15:00,62.0,58.7,30.08,SE,129,0.0,2.0,89,0.05,,,0.05,60.00,VWS V14.01,2013-05-02 15:15:00,
2013-05-02 10:20:00,61.9,58.6,30.08,SE,128,0.0,1.0,89,0.05,,,0.05,79.00,VWS V14.01,2013-05-02 15:20:00,
2013-05-02 10:25:00,61.8,58.5,30.08,SE,128,0.0,1.0,89,0.05,,,0.05,84.00,VWS V14.01,2013-05-02 15:25:00,
2013-05-02 10:30:00,61.8,58.8,30.08,SE,129,0.0,0.0,90,0.04,,,0.05,70.00,VWS V14.01,2013-05-02 15:30:00,
2013-05-02 10:35:00,62.0,59.0,30.08,SE,129,0.0,0.0,90,0.05,,,0.06,77.00,VWS V14.01,2013-05-02 15:35:00,
2013-05-02 10:40:00,62.0,59.0,30.08,SE,129,0.0,0.0,90,0.03,,,0.06,77.00,VWS V14.01,2013-05-02 15:40:00,
2013-05-02 10:45:00,62.0,59.0,30.08,SE,129,1.0,4.0,90,0.03,,,0.06,83.00,VWS V14.01,2013-05-02 15:45:00,
2013-05-02 10:50:00,62.1,58.8,30.08,SE,129,0.0,0.0,89,0.03,,,0.06,104.00,VWS V14.01,2013-05-02 15:50:00,
2013-05-02 10:55:00,62.4,59.1,30.08,SE,128,0.0,3.0,89,0.03,,,0.06,120.00,VWS V14.01,2013-05-02 15:55:00,
2013-05-02 11:00:00,62.6,59.3,30.08,SE,128,2.0,3.0,89,0.02,,,0.06,174.00,VWS V14.01,2013-05-02 16:00:00,
2013-05-02 11:05:00,62.8,59.5,30.08,SE,128,0.0,4.0,89,0.02,,,0.06,304.00,VWS V14.01,2013-05-02 16:05:00,
2013-05-02 11:10:00,63.2,59.9,30.08,SE,128,0.0,0.0,89,0.01,,,0.06,253.00,VWS V14.01,2013-05-02 16:10:00,
2013-05-02 11:15:00,63.7,60.4,30.08,ESE,123,0.0,3.0,89,0.01,,,0.06,239.00,VWS V14.01,2013-05-02 16:15:00,
2013-05-02 11:20:00,63.9,60.3,30.08,ESE,122,0.0,0.0,88,0.01,,,0.06,241.00,VWS V14.01,2013-05-02 16:20:00,
2013-05-02 11:25:00,64.1,60.2,30.08,ESE,118,0.0,4.0,87,0.01,,,0.06,272.00,VWS V14.01,2013-05-02 16:25:00,
2013-05-02 11:30:00,64.6,60.7,30.07,ESE,117,1.0,2.0,87,0.01,,,0.06,378.00,VWS V14.01,2013-05-02 16:30:00,
2013-05-02 11:35:00,65.0,61.0,30.07,ESE,115,0.0,4.0,87,0.01,,,0.06,364.00,VWS V14.01,2013-05-02 16:35:00,
2013-05-02 11:40:00,65.3,60.7,30.07,ESE,113,5.0,5.0,85,0.00,,,0.06,345.00,VWS V14.01,2013-05-02 16:40:00,
2013-05-02 11:45:00,65.6,60.3,30.07,East,101,1.0,7.0,83,0.00,,,0.06,329.00,VWS V14.01,2013-05-02 16:45:00,
2013-05-02 11:50:00,65.9,60.6,30.07,ESE,123,1.0,2.0,83,0.00,,,0.06,297.00,VWS V14.01,2013-05-02 16:50:00,
2013-05-02 11:55:00,65.9,60.3,30.07,ESE,107,5.0,5.0,82,0.00,,,0.06,251.00,VWS V14.01,2013-05-02 16:55:00,
2013-05-02 12:00:00,66.1,60.5,30.07,ESE,105,1.0,3.0,82,0.00,,,0.06,234.00,VWS V14.01,2013-05-02 17:00:00,
2013-05-02 12:05:00,66.1,60.5,30.06,ESE,117,1.0,5.0,82,0.00,,,0.06,225.00,VWS V14.01,2013-05-02 17:05:00,
2013-05-02 12:10:00,66.1,60.5,30.06,SE,127,4.0,5.0,82,0.00,,,0.06,213.00,VWS V14.01,2013-05-02 17:10:00,
2013-05-02 12:15:00,65.9,60.3,30.06,East,91,6.0,9.0,82,0.00,,,0.06,185.00,VWS V14.01,2013-05-02 17:15:00,
2013-05-02 12:20:00,65.9,60.6,30.06,ESE,105,4.0,4.0,83,0.00,,,0.06,223.00,VWS V14.01,2013-05-02 17:20:00,
2013-05-02 12:25:00,65.9,60.9,30.06,ESE,111,1.0,7.0,84,0.00,,,0.06,232.00,VWS V14.01,2013-05-02 17:25:00,
2013-05-02 12:30:00,66.1,61.1,30.06,ESE,112,5.0,5.0,84,0.00,,,0.06,265.00,VWS V14.01,2013-05-02 17:30:00,
2013-05-02 12:35:00,66.2,60.9,30.06,ESE,118,1.0,8.0,83,0.00,,,0.06,315.00,VWS V14.01,2013-05-02 17:35:00,
2013-05-02 12:40:00,66.3,61.0,30.06,ESE,118,5.0,5.0,83,0.00,,,0.06,288.00,VWS V14.01,2013-05-02 17:40:00,
2013-05-02 12:45:00,66.4,61.1,30.06,ESE,116,2.0,7.0,83,0.00,,,0.06,250.00,VWS V14.01,2013-05-02 17:45:00,
2013-05-02 12:50:00,66.4,61.4,30.06,ESE,116,5.0,9.0,84,0.00,,,0.06,225.00,VWS V14.01,2013-05-02 17:50:00,
2013-05-02 12:55:00,66.3,61.7,30.06,ESE,107,3.0,9.0,85,0.01,,,0.07,255.00,VWS V14.01,2013-05-02 17:55:00,
2013-05-02 13:00:00,66.2,61.6,30.06,SE,128,3.0,5.0,85,0.01,,,0.07,251.00,VWS V14.01,2013-05-02 18:00:00,
2013-05-02 13:05:00,66.3,62.0,30.06,ESE,121,2.0,7.0,86,0.01,,,0.07,220.00,VWS V14.01,2013-05-02 18:05:00,
2013-05-02 13:10:00,66.2,61.9,30.06,ESE,123,2.0,2.0,86,0.01,,,0.07,213.00,VWS V14.01,2013-05-02 18:10:00,
2013-05-02 13:15:00,66.3,62.3,30.06,ESE,123,3.0,4.0,87,0.01,,,0.07,204.00,VWS V14.01,2013-05-02 18:15:00,
2013-05-02 13:20:00,66.2,62.2,30.06,ESE,119,5.0,5.0,87,0.01,,,0.07,183.00,VWS V14.01,2013-05-02 18:20:00,
2013-05-02 13:25:00,66.1,62.1,30.06,ESE,112,4.0,7.0,87,0.01,,,0.07,120.00,VWS V14.01,2013-05-02 18:25:00,
2013-05-02 13:30:00,65.7,61.7,30.06,ESE,119,4.0,7.0,87,0.01,,,0.07,74.00,VWS V14.01,2013-05-02 18:30:00,
2013-05-02 13:35:00,65.4,61.4,30.06,ESE,117,4.0,8.0,87,0.02,,,0.08,83.00,VWS V14.01,2013-05-02 18:35:00,
2013-05-02 13:40:00,65.0,61.4,30.06,ESE,114,5.0,8.0,88,0.03,,,0.09,109.00,VWS V14.01,2013-05-02 18:40:00,
2013-05-02 13:45:00,64.6,61.0,30.06,SE,126,5.0,8.0,88,0.04,,,0.10,141.00,VWS V14.01,2013-05-02 18:45:00,
2013-05-02 13:50:00,64.5,61.2,30.06,SE,127,1.0,3.0,89,0.06,,,0.12,144.00,VWS V14.01,2013-05-02 18:50:00,
2013-05-02 13:55:00,64.4,61.4,30.06,ESE,115,1.0,6.0,90,0.09,,,0.15,128.00,VWS V14.01,2013-05-02 18:55:00,
2013-05-02 14:00:00,64.2,61.2,30.06,ESE,116,4.0,4.0,90,0.10,,,0.17,111.00,VWS V14.01,2013-05-02 19:00:00,
2013-05-02 14:05:00,63.8,61.1,30.06,ESE,117,2.0,5.0,91,0.13,,,0.20,116.00,VWS V14.01,2013-05-02 19:05:00,
2013-05-02 14:10:00,63.7,61.0,30.06,ESE,117,4.0,4.0,91,0.20,,,0.27,79.00,VWS V14.01,2013-05-02 19:10:00,
2013-05-02 14:15:00,63.6,61.2,30.05,ESE,117,2.0,4.0,92,0.23,,,0.30,102.00,VWS V14.01,2013-05-02 19:15:00,
2013-05-02 14:20:00,63.4,61.0,30.05,ESE,117,3.0,4.0,92,0.26,,,0.33,83.00,VWS V14.01,2013-05-02 19:20:00,
2013-05-02 14:25:00,63.4,61.0,30.05,ESE,117,2.0,4.0,92,0.31,,,0.38,90.00,VWS V14.01,2013-05-02 19:25:00,
2013-05-02 14:30:00,63.5,61.1,30.05,ESE,117,1.0,1.0,92,0.35,,,0.42,98.00,VWS V14.01,2013-05-02 19:30:00,
2013-05-02 14:35:00,63.6,61.5,30.05,ESE,117,0.0,3.0,93,0.38,,,0.45,107.00,VWS V14.01,2013-05-02 19:35:00,
2013-05-02 14:40:00,63.6,61.5,30.05,ESE,118,3.0,4.0,93,0.37,,,0.46,81.00,VWS V14.01,2013-05-02 19:40:00,
2013-05-02 14:45:00,63.7,61.6,30.05,ESE,113,2.0,5.0,93,0.39,,,0.48,84.00,VWS V14.01,2013-05-02 19:45:00,
2013-05-02 14:50:00,63.8,61.7,30.05,ESE,113,2.0,4.0,93,0.38,,,0.49,79.00,VWS V14.01,2013-05-02 19:50:00,
2013-05-02 14:55:00,63.6,61.5,30.05,East,84,3.0,6.0,93,0.41,,,0.52,83.00,VWS V14.01,2013-05-02 19:55:00,
2013-05-02 15:00:00,63.2,61.2,30.04,East,83,2.0,3.0,93,0.39,,,0.56,62.00,VWS V14.01,2013-05-02 20:00:00,
2013-05-02 15:05:00,63.2,61.2,30.04,East,90,0.0,6.0,93,0.41,,,0.58,47.00,VWS V14.01,2013-05-02 20:05:00,
2013-05-02 15:10:00,63.1,61.0,30.04,East,90,6.0,6.0,93,0.31,,,0.58,44.00,VWS V14.01,2013-05-02 20:10:00,
2013-05-02 15:15:00,62.9,60.8,30.04,East,90,5.0,6.0,93,0.32,,,0.59,35.00,VWS V14.01,2013-05-02 20:15:00,
2013-05-02 15:20:00,62.7,60.7,30.04,ESE,114,3.0,3.0,93,0.28,,,0.61,72.00,VWS V14.01,2013-05-02 20:20:00,
2013-05-02 15:25:00,62.8,61.0,30.03,ESE,115,1.0,4.0,94,0.30,,,0.63,77.00,VWS V14.01,2013-05-02 20:25:00,
2013-05-02 15:30:00,62.8,61.0,30.03,ESE,115,0.0,0.0,94,0.22,,,0.64,70.00,VWS V14.01,2013-05-02 20:30:00,
2013-05-02 15:35:00,62.9,61.2,30.03,ESE,114,0.0,2.0,94,0.22,,,0.64,79.00,VWS V14.01,2013-05-02 20:35:00,
2013-05-02 15:40:00,63.0,61.2,30.03,ESE,114,0.0,1.0,94,0.18,,,0.64,77.00,VWS V14.01,2013-05-02 20:40:00,
2013-05-02 15:45:00,63.0,61.2,30.03,ESE,115,0.0,3.0,94,0.18,,,0.64,116.00,VWS V14.01,2013-05-02 20:45:00,
2013-05-02 15:50:00,63.2,61.5,30.03,ESE,115,0.0,0.0,94,0.17,,,0.66,107.00,VWS V14.01,2013-05-02 20:50:00,
2013-05-02 15:55:00,63.2,61.5,30.03,ESE,114,0.0,1.0,94,0.19,,,0.68,88.00,VWS V14.01,2013-05-02 20:55:00,
2013-05-02 16:00:00,63.2,61.5,30.02,ESE,114,0.0,0.0,94,0.14,,,0.69,83.00,VWS V14.01,2013-05-02 21:00:00,
2013-05-02 16:05:00,63.2,61.5,30.02,ESE,114,0.0,0.0,94,0.15,,,0.70,72.00,VWS V14.01,2013-05-02 21:05:00,
2013-05-02 16:10:00,63.2,61.5,30.02,ESE,115,0.0,1.0,94,0.13,,,0.71,72.00,VWS V14.01,2013-05-02 21:10:00,
2013-05-02 16:15:00,63.2,61.5,30.02,ESE,114,0.0,2.0,94,0.14,,,0.72,60.00,VWS V14.01,2013-05-02 21:15:00,
2013-05-02 16:20:00,63.2,61.5,30.02,ESE,114,0.0,0.0,94,0.12,,,0.73,40.00,VWS V14.01,2013-05-02 21:20:00,
2013-05-02 16:25:00,63.1,61.3,30.02,ESE,115,0.0,0.0,94,0.12,,,0.73,54.00,VWS V14.01,2013-05-02 21:25:00,
2013-05-02 16:30:00,63.1,61.3,30.01,ESE,114,0.0,0.0,94,0.11,,,0.75,62.00,VWS V14.01,2013-05-02 21:30:00,
2013-05-02 16:35:00,63.3,61.5,30.01,ESE,114,2.0,3.0,94,0.13,,,0.77,46.00,VWS V14.01,2013-05-02 21:35:00,
2013-05-02 16:40:00,63.3,61.5,30.01,ESE,115,0.0,0.0,94,0.13,,,0.77,40.00,VWS V14.01,2013-05-02 21:40:00,
2013-05-02 16:45:00,63.4,61.7,30.01,ESE,115,2.0,3.0,94,0.16,,,0.80,39.00,VWS V14.01,2013-05-02 21:45:00,
2013-05-02 16:50:00,63.4,61.7,30.01,ESE,114,0.0,0.0,94,0.17,,,0.83,56.00,VWS V14.01,2013-05-02 21:50:00,
2013-05-02 16:55:00,63.4,61.7,30.01,ESE,114,0.0,1.0,94,0.17,,,0.83,65.00,VWS V14.01,2013-05-02 21:55:00,
2013-05-02 17:00:00,63.4,61.7,30.01,ESE,113,0.0,0.0,94,0.15,,,0.84,53.00,VWS V14.01,2013-05-02 22:00:00,
2013-05-02 17:05:00,63.5,61.8,30.01,ESE,114,0.0,0.0,94,0.15,,,0.84,44.00,VWS V14.01,2013-05-02 22:05:00,
2013-05-02 17:10:00,63.5,61.8,30.01,ESE,114,0.0,0.0,94,0.13,,,0.84,37.00,VWS V14.01,2013-05-02 22:10:00,
2013-05-02 17:15:00,63.5,61.8,30.01,ESE,114,0.0,0.0,94,0.13,,,0.84,37.00,VWS V14.01,2013-05-02 22:15:00,
2013-05-02 17:20:00,63.5,61.8,30.01,ESE,113,0.0,0.0,94,0.11,,,0.84,35.00,VWS V14.01,2013-05-02 22:20:00,
2013-05-02 17:25:00,63.5,61.8,30.01,ESE,113,0.0,0.0,94,0.11,,,0.84,40.00,VWS V14.01,2013-05-02 22:25:00,
2013-05-02 17:30:00,63.4,61.7,30.01,ESE,114,0.0,0.0,94,0.09,,,0.84,47.00,VWS V14.01,2013-05-02 22:30:00,
2013-05-02 17:35:00,63.4,61.7,30.01,ESE,114,0.0,0.0,94,0.09,,,0.84,56.00,VWS V14.01,2013-05-02 22:35:00,
2013-05-02 17:40:00,63.4,62.0,30.01,ESE,115,0.0,0.0,95,0.07,,,0.84,72.00,VWS V14.01,2013-05-02 22:40:00,
2013-05-02 17:45:00,63.5,62.0,30.00,ESE,114,0.0,0.0,95,0.07,,,0.84,70.00,VWS V14.01,2013-05-02 22:45:00,
2013-05-02 17:50:00,63.6,62.2,30.01,ESE,114,0.0,0.0,95,0.01,,,0.84,53.00,VWS V14.01,2013-05-02 22:50:00,
2013-05-02 17:55:00,63.6,62.2,30.00,ESE,114,0.0,1.0,95,0.01,,,0.84,39.00,VWS V14.01,2013-05-02 22:55:00,
2013-05-02 18:00:00,63.7,62.2,30.00,ESE,113,0.0,0.0,95,0.00,,,0.84,28.00,VWS V14.01,2013-05-02 23:00:00,
2013-05-02 18:05:00,63.8,62.3,30.01,ESE,114,0.0,2.0,95,0.00,,,0.84,26.00,VWS V14.01,2013-05-02 23:05:00,
2013-05-02 18:10:00,63.8,62.0,30.01,ESE,114,0.0,0.0,94,0.00,,,0.84,23.00,VWS V14.01,2013-05-02 23:10:00,
2013-05-02 18:15:00,63.7,62.0,30.00,ESE,114,0.0,1.0,94,0.00,,,0.84,21.00,VWS V14.01,2013-05-02 23:15:00,
2013-05-02 18:20:00,63.8,62.3,30.00,ESE,114,0.0,0.0,95,0.00,,,0.84,19.00,VWS V14.01,2013-05-02 23:20:00,
2013-05-02 18:25:00,63.8,62.3,30.00,ESE,114,0.0,1.0,95,0.00,,,0.84,21.00,VWS V14.01,2013-05-02 23:25:00,
2013-05-02 18:30:00,63.8,62.3,30.01,ESE,114,0.0,0.0,95,0.00,,,0.84,28.00,VWS V14.01,2013-05-02 23:30:00,
2013-05-02 18:35:00,63.9,62.4,30.00,ESE,114,0.0,0.0,95,0.00,,,0.84,23.00,VWS V14.01,2013-05-02 23:35:00,
2013-05-02 18:40:00,63.9,62.4,30.00,ESE,114,0.0,0.0,95,0.00,,,0.84,16.00,VWS V14.01,2013-05-02 23:40:00,
2013-05-02 18:45:00,63.9,62.4,30.00,ESE,114,0.0,0.0,95,0.00,,,0.84,18.00,VWS V14.01,2013-05-02 23:45:00,
2013-05-02 18:50:00,63.9,62.4,30.01,ESE,114,0.0,0.0,95,0.00,,,0.84,12.00,VWS V14.01,2013-05-02 23:50:00,
2013-05-02 18:55:00,64.0,62.5,30.00,ESE,114,1.0,3.0,95,0.00,,,0.84,11.00,VWS V14.01,2013-05-02 23:55:00,
2013-05-02 19:00:00,64.0,62.5,30.00,ESE,114,1.0,2.0,95,0.00,,,0.84,14.00,VWS V14.01,2013-05-03 00:00:00,
2013-05-02 19:05:00,63.9,62.4,30.00,ESE,114,0.0,3.0,95,0.00,,,0.84,14.00,VWS V14.01,2013-05-03 00:05:00,
2013-05-02 19:10:00,63.8,62.3,30.00,East,84,0.0,0.0,95,0.00,,,0.84,14.00,VWS V14.01,2013-05-03 00:10:00,
2013-05-02 19:15:00,63.8,62.3,30.00,East,84,0.0,5.0,95,0.00,,,0.84,12.00,VWS V14.01,2013-05-03 00:15:00,
2013-05-02 19:20:00,63.9,62.4,30.00,East,84,0.0,5.0,95,0.00,,,0.84,9.00,VWS V14.01,2013-05-03 00:20:00,
2013-05-02 19:25:00,63.9,62.4,29.99,East,84,0.0,1.0,95,0.00,,,0.84,7.00,VWS V14.01,2013-05-03 00:25:00,
2013-05-02 19:30:00,63.9,62.4,29.99,East,83,0.0,0.0,95,0.00,,,0.84,5.00,VWS V14.01,2013-05-03 00:30:00,
2013-05-02 19:35:00,63.9,62.4,30.00,East,84,0.0,1.0,95,0.00,,,0.84,0.00,VWS V14.01,2013-05-03 00:35:00,
2013-05-02 19:40:00,63.9,62.4,29.99,East,84,0.0,0.0,95,0.00,,,0.84,0.00,VWS V14.01,2013-05-03 00:40:00,
2013-05-02 19:45:00,63.8,62.3,29.99,East,84,0.0,3.0,95,0.00,,,0.84,0.00,VWS V14.01,2013-05-03 00:45:00,
2013-05-02 19:50:00,63.8,62.3,29.99,East,84,0.0,3.0,95,0.00,,,0.84,0.00,VWS V14.01,2013-05-03 00:50:00,
2013-05-02 19:55:00,63.8,62.3,29.99,East,84,0.0,2.0,95,0.00,,,0.84,0.00,VWS V14.01,2013-05-03 00:55:00,
2013-05-02 20:00:00,63.7,62.2,30.00,East,84,0.0,0.0,95,0.00,,,0.84,0.00,VWS V14.01,2013-05-03 01:00:00,
2013-05-02 20:05:00,63.7,62.2,29.99,East,84,0.0,0.0,95,0.00,,,0.84,0.00,VWS V14.01,2013-05-03 01:05:00,
2013-05-02 20:10:00,63.6,62.2,30.00,East,84,0.0,0.0,95,0.00,,,0.84,0.00,VWS V14.01,2013-05-03 01:10:00,
2013-05-02 20:15:00,63.6,62.2,30.00,East,84,0.0,1.0,95,0.00,,,0.84,0.00,VWS V14.01,2013-05-03 01:15:00,
2013-05-02 20:20:00,63.5,62.0,30.00,East,84,0.0,3.0,95,0.00,,,0.84,0.00,VWS V14.01,2013-05-03 01:20:00,
2013-05-02 20:25:00,63.5,62.0,30.00,East,84,0.0,3.0,95,0.00,,,0.84,0.00,VWS V14.01,2013-05-03 01:25:00,
2013-05-02 20:30:00,63.4,62.0,30.00,East,84,0.0,0.0,95,0.00,,,0.84,0.00,VWS V14.01,2013-05-03 01:30:00,
2013-05-02 20:35:00,63.4,62.0,30.00,East,84,0.0,1.0,95,0.00,,,0.84,0.00,VWS V14.01,2013-05-03 01:35:00,
2013-05-02 20:40:00,63.4,62.0,30.00,East,85,0.0,0.0,95,0.00,,,0.84,0.00,VWS V14.01,2013-05-03 01:40:00,
2013-05-02 20:45:00,63.4,62.0,30.00,East,84,0.0,1.0,95,0.00,,,0.84,0.00,VWS V14.01,2013-05-03 01:45:00,
2013-05-02 20:50:00,63.4,62.0,30.00,East,84,0.0,0.0,95,0.00,,,0.84,0.00,VWS V14.01,2013-05-03 01:50:00,
2013-05-02 20:55:00,63.3,61.8,30.00,East,85,0.0,0.0,95,0.00,,,0.84,0.00,VWS V14.01,2013-05-03 01:55:00,
2013-05-02 21:00:00,63.3,61.8,30.00,East,84,0.0,0.0,95,0.00,,,0.84,0.00,VWS V14.01,2013-05-03 02:00:00,
2013-05-02 21:05:00,63.2,61.8,30.00,East,85,0.0,1.0,95,0.00,,,0.84,0.00,VWS V14.01,2013-05-03 02:05:00,
2013-05-02 21:10:00,63.3,61.8,30.00,East,84,0.0,0.0,95,0.00,,,0.84,0.00,VWS V14.01,2013-05-03 02:10:00,
2013-05-02 21:15:00,63.3,61.8,30.00,East,84,0.0,0.0,95,0.00,,,0.84,0.00,VWS V14.01,2013-05-03 02:15:00,
2013-05-02 21:20:00,63.2,61.8,30.00,East,84,0.0,0.0,95,0.00,,,0.84,0.00,VWS V14.01,2013-05-03 02:20:00,
2013-05-02 21:25:00,63.2,61.8,30.00,East,85,0.0,0.0,95,0.00,,,0.84,0.00,VWS V14.01,2013-05-03 02:25:00,
2013-05-02 21:30:00,63.2,61.8,30.00,East,85,0.0,0.0,95,0.00,,,0.84,0.00,VWS V14.01,2013-05-03 02:30:00,
2013-05-02 21:35:00,63.2,61.8,30.00,East,84,0.0,1.0,95,0.00,,,0.84,0.00,VWS V14.01,2013-05-03 02:35:00,
2013-05-02 21:40:00,63.2,61.8,30.00,East,85,0.0,0.0,95,0.00,,,0.84,0.00,VWS V14.01,2013-05-03 02:40:00,
2013-05-02 21:45:00,63.2,61.8,30.00,East,84,0.0,2.0,95,0.00,,,0.84,0.00,VWS V14.01,2013-05-03 02:45:00,
2013-05-02 21:50:00,63.3,61.8,30.00,East,84,0.0,0.0,95,0.00,,,0.84,0.00,VWS V14.01,2013-05-03 02:50:00,
2013-05-02 21:55:00,63.3,61.8,30.00,East,84,0.0,1.0,95,0.00,,,0.84,0.00,VWS V14.01,2013-05-03 02:55:00,
2013-05-02 22:00:00,63.4,62.0,30.00,East,84,0.0,0.0,95,0.00,,,0.84,0.00,VWS V14.01,2013-05-03 03:00:00,
2013-05-02 22:05:00,63.4,62.0,30.00,East,84,0.0,0.0,95,0.00,,,0.84,0.00,VWS V14.01,2013-05-03 03:05:00,
2013-05-02 22:10:00,63.5,62.0,30.00,East,84,0.0,1.0,95,0.00,,,0.84,0.00,VWS V14.01,2013-05-03 03:10:00,
2013-05-02 22:15:00,63.4,62.0,30.00,East,84,0.0,1.0,95,0.00,,,0.84,0.00,VWS V14.01,2013-05-03 03:15:00,
2013-05-02 22:20:00,63.4,62.0,30.00,East,84,0.0,0.0,95,0.00,,,0.84,0.00,VWS V14.01,2013-05-03 03:20:00,
2013-05-02 22:25:00,63.4,62.0,30.00,East,84,0.0,1.0,95,0.00,,,0.84,0.00,VWS V14.01,2013-05-03 03:25:00,
2013-05-02 22:30:00,63.4,62.0,30.00,East,84,0.0,0.0,95,0.00,,,0.84,0.00,VWS V14.01,2013-05-03 03:30:00,
2013-05-02 22:35:00,63.5,62.0,30.00,East,84,2.0,2.0,95,0.00,,,0.84,0.00,VWS V14.01,2013-05-03 03:35:00,
2013-05-02 22:40:00,63.5,62.0,29.99,East,84,0.0,0.0,95,0.00,,,0.84,0.00,VWS V14.01,2013-05-03 03:40:00,
2013-05-02 22:45:00,63.4,62.0,29.99,East,84,0.0,1.0,95,0.00,,,0.84,0.00,VWS V14.01,2013-05-03 03:45:00,
2013-05-02 22:50:00,63.5,62.0,29.99,East,84,0.0,0.0,95,0.00,,,0.84,0.00,VWS V14.01,2013-05-03 03:50:00,
2013-05-02 22:55:00,63.5,62.0,29.99,East,85,0.0,1.0,95,0.00,,,0.84,0.00,VWS V14.01,2013-05-03 03:55:00,
2013-05-02 23:00:00,63.5,62.0,29.99,East,84,0.0,0.0,95,0.00,,,0.84,0.00,VWS V14.01,2013-05-03 04:00:00,
2013-05-02 23:01:00,63.5,62.0,29.99,East,84,0.0,0.0,95,0.00,,,0.84,0.00,VWS V14.01,2013-05-03 04:01:00,
2013-05-02 23:06:00,63.5,62.0,29.98,East,84,0.0,1.0,95,0.00,,,0.84,0.00,VWS V14.01,2013-05-03 04:06:00,
2013-05-02 23:11:00,63.5,62.0,29.99,East,85,0.0,0.0,95,0.00,,,0.84,0.00,VWS V14.01,2013-05-03 04:11:00,
2013-05-02 23:16:00,63.6,62.2,29.98,East,84,0.0,0.0,95,0.00,,,0.84,0.00,VWS V14.01,2013-05-03 04:16:00,
2013-05-02 23:21:00,63.6,62.4,29.98,East,84,0.0,0.0,96,0.00,,,0.84,0.00,VWS V14.01,2013-05-03 04:21:00,
2013-05-02 23:26:00,63.6,62.4,29.98,East,84,0.0,1.0,96,0.00,,,0.84,0.00,VWS V14.01,2013-05-03 04:26:00,
2013-05-02 23:31:00,63.6,62.4,29.98,ESE,108,0.0,5.0,96,0.00,,,0.84,0.00,VWS V14.01,2013-05-03 04:31:00,
2013-05-02 23:36:00,63.6,62.4,29.98,ESE,108,0.0,5.0,96,0.00,,,0.84,0.00,VWS V14.01,2013-05-03 04:36:00,
2013-05-02 23:41:00,63.6,62.4,29.98,ESE,107,0.0,1.0,96,0.00,,,0.84,0.00,VWS V14.01,2013-05-03 04:41:00,
2013-05-02 23:46:00,63.6,62.4,29.98,ESE,107,0.0,1.0,96,0.00,,,0.84,0.00,VWS V14.01,2013-05-03 04:46:00,
2013-05-02 23:51:00,63.6,62.4,29.97,ESE,108,1.0,3.0,96,0.00,,,0.84,0.00,VWS V14.01,2013-05-03 04:51:00,
2013-05-02 23:56:00,63.6,62.4,29.97,ESE,108,0.0,3.0,96,0.00,,,0.84,0.00,VWS V14.01,2013-05-03 04:56:00,